Content
SEND FEEDBACK

Daily
Averages
Monthly
Summary
United Kingdom

LONDON, ENGLAND


Home > Europe > United Kingdom > England
Elevation: 203 feet     Latitude: 51 09N     Longitude: 000 11W

WEATHER
 
SELECT A DAY
Number of Records: 299,385;   Date Range: 7/1/96 - 12/16/14
 
SHARE

PRINT THIS DATA

[ ← Previous Day ]
WEATHER ALMANAC - MARCH 8, 2013
[ Next Day → ]
[ °C ]   °F
Weather ElementAverageHighLow
Temperature48.6 °F50 °F (11:20 am)48.2 °F (12:50 am)
Dewpoint47.4 °F48.2 °F (12:50 am)46.4 °F (1:50 am)
Humidity95.3 %100 % (12:50 am)93 % (1:50 am)
Barometer29.45 in29.53 in (7:50 pm)29.39 in (12:50 am)
Wind Speed4.9 mph8.1 mph (8:50 am)
Wind Gust19.6 mph (2:20 pm)
Weather ElementAverage
Visibility1.9 mi
Wind DirectionESE (106.8 °)

Weather ElementTotal
Precipitation---
Heating Degree Days15.9 (Base 65)
Averaged from 47 records on March 8, 2013
WEATHER CONDITIONS BREAKOUT
WIND DIRECTION BREAKOUT
WEATHER BY HOUR - MARCH 8, 2013
[ °C ]   °F
Local TimeTemperatureDewpointHumidityBarometerVisibilityWind DirectionWind SpeedGust SpeedPrecipitationEventsConditions
12:50 AM48.2 °F48.2 °F100 %29.39 in1.4 miENE (70°)4.6 mphMostly Cloudy
1:20 AM48.2 °F48.2 °F100 %29.39 in1.1 miENE (70°)4.6 mphMostly Cloudy
1:50 AM48.2 °F46.4 °F93 %29.39 in0.6 miENE (70°)4.6 mphFogFog
2:20 AM48.2 °F46.4 °F93 %29.39 in0.2 miENE (70°)4.6 mphFogFog
2:50 AM48.2 °F46.4 °F93 %29.39 in0.2 miENE (70°)4.6 mphFogFog
3:20 AM48.2 °F46.4 °F93 %29.39 in0.1 miENE (70°)4.6 mphFogFog
3:50 AM48.2 °F46.4 °F93 %29.39 in0.1 miENE (60°)5.8 mphFogFog
4:20 AM48.2 °F46.4 °F93 %29.39 in0.1 miENE (60°)5.8 mphFogFog
4:50 AM48.2 °F46.4 °F93 %29.39 in0.1 miENE (70°)4.6 mphFogFog
5:20 AM48.2 °F46.4 °F93 %29.39 in0.1 miEast (80°)5.8 mphFogFog
5:50 AM48.2 °F46.4 °F93 %29.39 in0.1 miENE (70°)5.8 mphFogFog
6:20 AM48.2 °F46.4 °F93 %29.39 in0.1 miEast (80°)4.6 mphFogFog
6:50 AM48.2 °F46.4 °F93 %29.39 in0.1 miEast (80°)5.8 mphFogFog
7:20 AM48.2 °F46.4 °F93 %29.42 in0.2 miEast (80°)5.8 mphFogFog
7:50 AM48.2 °F48.2 °F100 %29.42 in0.4 miENE (70°)5.8 mphFogLight Drizzle
8:20 AM48.2 °F48.2 °F100 %29.42 in0.8 miNE (50°)5.8 mphLight Drizzle
8:50 AM48.2 °F48.2 °F100 %29.42 in1.1 miENE (70°)8.1 mphRainLight Rain
9:20 AM48.2 °F48.2 °F100 %29.42 in1.2 miENE (60°)8.1 mphRainLight Rain
9:50 AM48.2 °F48.2 °F100 %29.42 in1.4 miENE (60°)8.1 mphDrizzle
10:20 AM48.2 °F48.2 °F100 %29.42 in1.6 miENE (70°)8.1 mphDrizzle
10:50 AM48.2 °F48.2 °F100 %29.44 in1.2 miENE (60°)5.8 mphRainLight Rain
11:20 AM50.0 °F48.2 °F94 %29.44 in1.2 miENE (60°)4.6 mphRainLight Rain
11:50 AM50.0 °F48.2 °F94 %29.44 in1.4 miNNE (30°)4.6 mphRainLight Rain
12:20 PM50.0 °F48.2 °F94 %29.44 in2.5 miNNE (30°)5.8 mphRainLight Rain
12:50 PM50.0 °F48.2 °F94 %29.44 in2.2 miVariable3.5 mphRainLight Rain
1:20 PM50.0 °F48.2 °F94 %29.44 in2.2 miVariable5.8 mphRainLight Rain
1:50 PM50.0 °F48.2 °F94 %29.44 in2.5 miNNW (330°)4.6 mphRainLight Rain
2:20 PM50.0 °F48.2 °F94 %29.47 in3.1 miVariable6.9 mph19.6 mphRainRain
2:50 PM48.2 °F46.4 °F93 %29.47 in4.3 miNNW (330°)6.9 mphRainRain
3:20 PM48.2 °F46.4 °F93 %29.47 in4.3 miNNW (340°)5.8 mphRainRain
3:50 PM48.2 °F46.4 °F93 %29.47 in4.3 miNW (320°)4.6 mph17.3 mphRainLight Rain
4:20 PM48.2 °F46.4 °F93 %29.47 in3.7 miNNW (330°)4.6 mphRainLight Rain
4:50 PM48.2 °F48.2 °F100 %29.47 in4.3 miVariable3.5 mphRainLight Rain
5:20 PM50.0 °F48.2 °F94 %29.50 in5.0 miVariable3.5 mphRainLight Rain
5:50 PM48.2 °F46.4 °F93 %29.50 in3.7 miWNW (300°)4.6 mphRainLight Rain
6:20 PM48.2 °F48.2 °F100 %29.50 in3.1 miNW (310°)4.6 mphRainLight Rain
6:50 PM50.0 °F48.2 °F94 %29.50 in3.7 miVariable3.5 mphRainLight Rain
7:20 PM50.0 °F48.2 °F94 %29.50 in3.1 miVariable2.3 mphRainLight Rain
7:50 PM50.0 °F48.2 °F94 %29.53 in3.7 miVariable2.3 mphRainRain
8:20 PM48.2 °F48.2 °F100 %29.53 inVariable3.5 mphRainLight Rain
8:50 PM48.2 °F48.2 °F100 %29.53 in3.1 miWNW (300°)4.6 mphRainLight Rain
9:20 PM48.2 °F48.2 °F100 %29.53 in3.1 miNW (320°)3.5 mphDrizzle
9:50 PM48.2 °F46.4 °F93 %29.53 in3.1 miNNW (330°)3.5 mphRainRain
10:20 PM48.2 °F46.4 °F93 %29.53 in3.1 miVariable3.5 mphRainLight Rain
10:50 PM48.2 °F46.4 °F93 %29.53 in1.9 miVariable3.5 mphRainRain
11:20 PM48.2 °F46.4 °F93 %29.53 in1.0 miWSW (250°)2.3 mphHaze
11:50 PM48.2 °F46.4 °F93 %29.53 in0.9 miVariable2.3 mphLight Drizzle
Hourly data recorded from EGKK, located miles away from London, England







STORIES FROM OUR PARTNERS